Weather History for KGGW - March, 2014

Change the Weather History Date:

Tuesday, March 4, 2014

  Actual Average Record
Temperature  
Mean Temperature 14 °F 26 °F  
Max Temperature 20 °F 36 °F 66 °F (1987)
Min Temperature 7 °F 16 °F -28 °F (1917)
Degree Days  
Heating Degree Days 51 39  
Month to date heating degree days 258 160  
Since 1 July heating degree days 6906 6530  
Cooling Degree Days 0 0  
Month to date cooling degree days 0 0  
Year to date cooling degree days 0 0  
Moisture  
Dew Point 7 °F    
Average Humidity 82    
Maximum Humidity 91    
Minimum Humidity 73    
Precipitation  
Precipitation 0.01 in 0.01 in 0.20 in (1897)
Month to date precipitation 0.16 0.04  
Year to date precipitation 0.51 0.67  
Snow  
Snow 0.20 in 0.20 in 3.50 in (2013)
Month to date snowfall 2.7 0.7  
Since 1 July snowfall 26.5 27.7  
Snow Depth 2.00 in    
Sea Level Pressure  
Sea Level Pressure 30.06 in    
Wind  
Wind Speed 11 mph (ESE)    
Max Wind Speed 20 mph    
Max Gust Speed 24 mph    
Visibility 8 miles    
Events Snow    
T = Trace of Precipitation, MM = Missing Value Source: NWS Daily Summary

Daily Weather History Graph

Daily Weather History Graph

Search for Another Location

Airport or City:

Trip Planner

Search our weather history database for the weather conditions in past years. The results will help you decide how hot, cold, wet, or windy it might be!

Date:

Astronomy

Mar. 04, 2014 Rise Set
Actual Time 6:41 AM MST 5:55 PM MST
Civil Twilight 6:10 AM MST 6:26 PM MST
Nautical Twilight 5:34 AM MST 7:02 PM MST
Astronomical Twilight 4:58 AM MST 7:39 PM MST
Moon 8:10 AM MST (3/4) 10:27 PM MST (3/4)
Length of Visible Light 12h 16m
Length of Day
11h 13m
Waxing Crescent, 15% of the Moon is Illuminated
Mar 4
Waxing Crescent
Mar 8
First Quarter
Mar 16
Full
Mar 23
Last Quarter
Mar 30
New

Hourly Weather History & Observations

Time (MST) Temp. Windchill Dew Point Humidity Pressure Visibility Wind Dir Wind Speed Gust Speed Precip Events Conditions
12:53 AM 9.0 °F -8.5 °F 3.9 °F 80% 30.05 in 3.0 mi East 16.1 mph - 0.00 in Snow Light Snow
1:06 AM 9.0 °F -7.3 °F 3.9 °F 80% 29.90 in 2.0 mi East 13.8 mph - 0.00 in Snow Light Snow
1:15 AM 9.0 °F -7.3 °F 3.9 °F 80% 29.91 in 1.8 mi ESE 13.8 mph - 0.00 in Snow Light Snow
1:45 AM 9.0 °F -7.3 °F 5.0 °F 84% 29.91 in 2.5 mi East 13.8 mph - 0.01 in Snow Light Snow
1:53 AM 9.0 °F -8.5 °F 3.9 °F 80% 30.05 in 4.0 mi East 16.1 mph - 0.01 in Snow Light Snow
2:53 AM 9.0 °F -8.5 °F 3.9 °F 80% 30.03 in 9.0 mi East 16.1 mph - 0.00 in   Overcast
3:53 AM 9.0 °F -8.5 °F 3.9 °F 80% 30.03 in 10.0 mi East 16.1 mph - N/A   Overcast
4:53 AM 9.0 °F -7.3 °F 3.9 °F 80% 30.03 in 10.0 mi ESE 13.8 mph - N/A   Overcast
5:53 AM 9.0 °F -7.3 °F 3.9 °F 80% 30.05 in 9.0 mi East 13.8 mph - N/A   Overcast
6:53 AM 9.0 °F -5.9 °F 5.0 °F 84% 30.07 in 10.0 mi ESE 11.5 mph - N/A   Overcast
7:44 AM 10.0 °F -4.5 °F 5.0 °F 80% 29.92 in 10.0 mi ESE 11.5 mph - N/A   Overcast
7:53 AM 10.0 °F -4.5 °F 5.0 °F 80% 30.08 in 10.0 mi East 11.5 mph - N/A   Overcast
8:53 AM 10.9 °F -4.7 °F 6.1 °F 81% 30.08 in 8.0 mi ESE 13.8 mph - N/A   Overcast
9:53 AM 12.9 °F -1.6 °F 7.0 °F 77% 30.09 in 6.0 mi ESE 12.7 mph - N/A   Haze
10:53 AM 15.1 °F 2.5 °F 8.1 °F 74% 30.10 in 7.0 mi ESE 10.4 mph - N/A   Overcast
11:53 AM 16.0 °F 4.4 °F 9.0 °F 74% 30.09 in 9.0 mi SE 9.2 mph - N/A   Overcast
12:53 PM 18.0 °F 8.7 °F 10.9 °F 74% 30.08 in 10.0 mi SE 6.9 mph - N/A   Overcast
1:53 PM 19.0 °F 10.0 °F 12.0 °F 74% 30.07 in 10.0 mi SSE 6.9 mph - N/A   Overcast
2:06 PM 19.0 °F 10.0 °F 12.0 °F 74% 29.94 in 10.0 mi SE 6.9 mph - N/A   Overcast
2:53 PM 19.9 °F 12.1 °F 12.9 °F 74% 30.08 in 10.0 mi East 5.8 mph - N/A   Overcast
3:53 PM 19.9 °F 14.9 °F 12.9 °F 74% 30.10 in 10.0 mi SE 3.5 mph - N/A   Overcast
4:53 PM 19.9 °F 12.1 °F 12.9 °F 74% 30.12 in 10.0 mi ESE 5.8 mph - N/A   Partly Cloudy
5:53 PM 14.0 °F 2.0 °F 10.0 °F 84% 30.13 in 10.0 mi East 9.2 mph - N/A   Clear
6:53 PM 9.0 °F -5.1 °F 7.0 °F 92% 30.15 in 10.0 mi East 10.4 mph - N/A   Clear
7:53 PM 9.0 °F -5.1 °F 6.1 °F 88% 30.16 in 10.0 mi East 10.4 mph - N/A   Clear
8:53 PM 8.1 °F -7.0 °F 5.0 °F 87% 30.15 in 10.0 mi East 11.5 mph - N/A   Clear
9:53 PM 9.0 °F -7.3 °F 6.1 °F 88% 30.12 in 10.0 mi East 13.8 mph - N/A   Clear
10:53 PM 10.0 °F -4.5 °F 7.0 °F 87% 30.12 in 10.0 mi East 11.5 mph - N/A   Clear
11:53 PM 9.0 °F -6.6 °F 6.1 °F 88% 30.10 in 10.0 mi East 12.7 mph - N/A   Clear